Lid_Strength_Index
10 11 14 12 11 11 12 14 14 12 10 11 12 11 10 8 10 13 12 7 7 6 5 4 4 4 6 5 2 2 2 3 2 4 3 3 3 4 4 3 3 2 2 2
13 13 10 9 10 11 13 14 14 12 10 11 12 13 10 9 11 13 13 12 10 8 7 6 4 3 4 5 4 2 2 3 2 2 3 3 4 3 3 3 2 2 1 1
14 12 8 10 11 13 14 15 14 14 12 11 12 14 12 10 10 11 12 12 11 10 9 7 5 5 4 5 4 3 3 3 2 2 3 2 3 2 2 1 1 0 0 0
14 10 11 11 12 12 15 11 13 13 14 18 13 19 16 13 12 12 12 13 12 11 9 9 8 8 8 6 5 4 4 3 2 2 2 3 3 4 3 2 1 0 1 0
15 12 13 12 12 10 13 10 12 12 14 15 15 17 16 13 14 13 12 13 12 12 11 10 9 9 8 7 7 5 5 4 4 4 3 3 2 2 1 2 2 2 3 3
14 11 12 12 10 10 10 11 12 13 14 19 16 16 17 15 14 13 13 12 12 11 11 11 9 9 9 8 7 7 6 6 5 5 4 4 3 2 3 3 4 4 5 4
14 14 12 11 13 11 11 14 20 21 22 20 15 17 15 13 12 12 13 12 12 12 11 11 11 11 10 10 10 9 9 9 8 7 8 7 6 5 5 4 4 5 6 5
17 19 14 11 13 14 14 14 18 23 22 19 16 20 17 12 11 11 11 11 11 12 12 11 11 11 11 11 10 11 10 10 10 9 9 8 8 8 8 7 7 6 7 7
16 17 12 12 11 12 14 16 13 17 20 19 19 17 14 12 13 13 13 12 11 11 11 12 11 11 11 11 11 11 11 10 10 10 9 9 8 8 8 7 7 7 7 7
13 17 14 12 11 11 13 12 17 18 23 23 19 19 18 15 14 14 14 13 13 12 12 11 10 10 10 11 11 11 11 11 11 10 10 10 9 8 8 8 8 8 8 8
12 14 15 14 14 15 13 15 15 16 17 21 21 20 15 14 13 14 13 12 12 12 12 12 11 11 10 10 11 11 11 10 11 11 11 11 10 10 10 9 9 9 9 9
12 15 20 17 13 12 13 15 14 19 19 18 18 19 13 13 13 13 13 12 13 13 13 12 12 12 11 11 11 11 11 11 11 11 11 11 11 10 10 10 10 10 10 10
12 19 25 21 16 13 13 12 13 14 15 18 21 19 13 13 13 13 13 13 13 13 13 13 12 12 12 12 12 11 11 11 10 10 10 11 11 11 11 10 10 10 10 10
11 16 19 22 18 15 15 13 13 14 19 17 17 17 15 14 14 14 13 13 13 13 12 12 12 12 12 12 12 11 11 10 10 9 10 10 10 10 10 10 10 10 10 11
14 20 19 17 16 15 15 14 13 15 14 17 16 16 14 13 14 14 13 13 13 13 12 12 12 12 12 11 11 11 11 11 10 10 9 9 9 9 9 9 9 10 10 11
16 22 20 22 18 18 18 15 15 14 13 15 14 15 12 13 13 13 12 12 13 12 12 12 11 11 11 11 11 10 10 10 10 9 9 9 9 9 9 10 10 10 10 11
18 23 27 26 21 22 24 19 16 15 15 14 15 13 13 15 13 13 13 12 12 12 11 11 11 11 11 11 11 11 11 10 10 9 9 9 9 9 9 9 9 9 10 10
19 25 30 28 28 29 18 18 17 17 16 14 14 13 13 14 13 12 12 12 12 11 11 11 11 11 10 10 10 11 10 10 10 10 9 9 8 8 9 9 9 9 9 10
16 19 29 27 34 23 19 18 18 17 18 15 15 15 14 13 13 14 11 11 11 11 11 11 10 10 10 11 11 12 11 11 11 11 11 11 11 10 10 10 10 10 10 11
17 18 23 30 30 30 19 16 15 16 21 16 14 14 13 13 16 15 13 12 11 11 11 11 11 11 12 12 12 12 12 12 12 13 12 12 11 11 11 10 11 11 11 10
26 26 27 26 30 24 17 16 15 22 19 15 13 14 14 15 14 13 12 12 11 11 11 11 11 12 12 12 12 12 12 12 12 12 12 11 11 10 10 11 11 11 11 11
21 26 29 29 29 25 15 16 17 15 15 13 14 13 13 13 13 12 11 11 11 11 11 11 11 11 11 11 12 12 12 11 12 12 12 13 14 12 11 12 13 12 11 12
22 19 21 20 20 15 14 14 14 13 13 13 12 12 12 12 12 12 11 11 11 11 11 11 11 11 11 12 12 13 12 12 13 15 16 15 14 13 13 12 12 12 12 10
19 17 19 18 16 15 14 13 13 12 12 11 12 12 12 12 11 11 11 11 11 11 11 11 12 12 12 12 13 13 12 15 16 16 16 16 15 14 14 13 12 12 12 11
18 17 18 18 15 15 13 13 12 12 11 12 12 12 11 11 11 11 11 11 11 11 11 12 13 13 13 15 14 15 15 17 16 16 16 16 15 16 15 13 13 12 12 10
17 16 17 18 14 14 13 12 11 12 11 11 11 12 11 11 11 11 11 11 11 12 14 15 15 16 13 15 15 15 18 17 17 15 15 15 16 17 16 15 13 9 7 7